Wind_Speed
47 52 48 44 47 50 51 53 55 46 43 52 47 50 47 40 38 35 34 33 35 36 24 29 32 34 37 39 37 36 36 38 38 39 38 38 38 41 39 37 38 38 40 41
49 53 46 49 51 52 51 54 53 52 48 51 51 51 48 47 39 36 35 28 32 32 31 33 32 34 37 39 38 38 36 35 37 40 42 42 41 40 41 39 39 41 41 42
51 51 48 51 50 50 50 52 51 55 51 51 55 58 54 47 42 34 37 39 38 38 35 30 28 27 25 29 33 34 34 33 34 37 41 45 46 45 44 42 45 47 47 45
46 39 43 45 47 45 50 46 51 52 53 56 54 56 54 55 49 45 45 44 41 33 33 36 37 37 33 40 44 44 41 41 38 37 40 41 45 48 49 49 49 50 48 47
51 49 48 51 49 54 54 55 54 56 57 59 62 60 59 58 60 53 50 48 46 46 49 48 46 48 46 44 46 47 48 48 44 41 41 42 42 47 51 52 54 54 54 51
51 52 53 50 52 54 58 59 61 63 64 64 60 61 59 61 62 60 47 23 43 53 53 56 58 58 57 54 50 48 52 51 50 46 44 45 45 45 47 53 58 60 59 58
55 53 55 50 53 52 52 55 60 63 63 65 66 66 66 64 61 63 59 54 53 54 57 60 62 63 60 57 55 53 52 55 58 58 53 48 48 49 50 52 55 59 58 58
62 65 58 59 58 60 61 61 62 64 66 67 66 71 65 68 67 60 61 63 62 62 64 65 64 61 62 63 63 58 55 54 57 61 62 64 58 53 53 55 56 60 63 60
67 70 65 62 63 62 65 66 61 67 68 69 73 73 67 64 67 70 69 66 65 67 67 64 63 65 67 66 63 63 59 51 47 51 54 57 62 59 57 59 62 64 63 61
64 70 74 73 68 69 64 61 64 64 65 69 73 73 72 65 66 69 73 75 75 73 72 72 72 70 71 69 67 59 57 52 51 53 58 63 61 60 63 63 67 66 66 67
61 67 72 71 74 67 67 67 67 67 69 68 65 72 65 63 65 67 68 70 71 71 70 68 66 65 65 66 67 61 56 50 55 57 61 63 63 65 57 61 66 68 62 60
64 64 68 69 71 70 70 67 64 64 56 63 68 65 54 58 68 70 70 68 70 69 69 69 68 66 66 68 69 65 61 59 62 62 62 65 58 57 58 63 68 67 61 60
59 61 66 67 65 67 66 60 43 44 58 72 67 63 61 65 57 56 66 68 70 70 71 69 69 74 74 75 72 74 72 71 67 70 70 68 66 61 60 62 65 69 68 69
66 68 68 67 67 68 68 61 62 74 76 71 74 76 73 69 62 64 63 60 63 68 73 77 80 83 77 74 76 74 75 76 71 78 75 74 71 69 63 61 73 71 66 70
67 69 68 67 68 66 73 72 68 71 75 82 79 79 73 72 73 73 74 76 77 78 81 82 82 80 77 77 76 78 80 82 75 84 81 82 76 75 74 70 70 72 74 76
69 73 73 75 71 75 78 74 73 73 74 75 75 76 74 73 72 74 77 79 75 74 75 77 77 80 84 82 80 83 84 83 83 83 87 90 88 87 88 81 84 83 80 78
73 75 76 81 75 79 83 75 75 75 74 75 77 75 75 76 76 78 78 80 80 80 81 82 85 86 83 79 83 87 86 83 89 85 87 92 95 98 103 100 99 93 76 76
77 78 80 83 80 87 84 79 79 79 80 80 81 83 83 83 84 84 84 85 85 86 87 87 88 88 86 85 87 89 95 97 90 90 88 90 91 93 91 94 80 82 78 75
77 77 80 80 82 85 85 78 77 79 80 80 81 83 83 84 85 83 86 87 86 87 87 87 87 86 85 86 86 91 96 101 104 103 97 94 97 93 87 90 85 80 77 79
71 70 70 74 78 81 81 78 78 78 80 77 79 79 79 82 85 82 83 83 84 84 83 82 82 83 83 85 88 90 91 92 97 102 103 102 99 103 97 87 86 83 83 84
64 65 65 64 65 68 66 67 68 69 72 73 74 75 77 78 79 77 77 78 78 79 80 82 84 86 86 86 87 86 87 88 92 96 98 101 103 111 111 107 103 93 90 91
56 57 59 59 61 63 60 61 63 61 62 66 68 70 73 74 75 76 77 77 79 81 82 84 86 86 85 86 89 87 86 88 89 90 92 96 99 105 109 108 103 102 103 99
53 53 56 56 55 53 55 57 57 60 64 64 66 66 69 72 73 75 77 78 79 81 83 85 86 87 86 86 89 92 90 92 93 93 93 94 94 96 99 103 101 102 102 103
48 47 51 53 48 51 54 55 57 59 61 61 62 64 66 70 72 75 76 77 79 80 81 82 83 83 83 82 84 86 87 88 89 90 91 93 95 95 96 96 96 96 96 97
44 46 48 52 50 51 51 53 54 56 58 61 63 65 66 68 69 72 73 73 74 77 79 81 81 81 80 79 79 79 80 81 81 82 81 83 85 89 92 94 93 93 90 89
42 47 52 54 50 52 55 53 56 60 61 61 61 62 63 64 65 66 67 70 74 74 74 73 73 75 74 72 70 70 70 71 71 71 71 73 75 77 80 84 86 87 88 86
Wind_Direction
277 282 285 285 281 282 284 286 286 288 287 281 281 281 284 282 283 288 284 287 282 279 271 267 278 284 285 284 283 281 279 274 269 271 272 269 268 265 266 262 262 264 266 266
277 279 283 277 279 281 282 283 286 285 284 282 284 280 279 285 292 291 291 284 283 274 275 279 274 270 275 281 283 285 281 280 278 276 271 270 270 268 266 265 263 267 267 264
272 276 278 279 276 275 274 276 277 279 280 277 282 283 284 288 289 286 282 281 279 285 286 284 283 276 270 275 280 282 283 282 280 277 275 275 271 271 265 262 262 265 264 265
272 274 274 273 273 270 271 274 274 277 277 279 278 281 284 288 288 284 282 282 284 281 269 272 278 272 272 284 287 284 279 277 275 274 277 277 276 274 269 264 260 262 264 265
278 276 275 274 273 274 274 274 274 273 273 276 278 279 285 287 291 289 289 290 295 294 292 279 272 272 273 274 276 279 280 280 278 273 273 274 274 275 273 268 265 265 265 266
276 279 279 279 275 274 275 275 274 271 270 269 273 278 277 279 283 287 300 293 286 285 283 282 283 285 286 284 277 276 282 277 274 269 265 264 265 267 268 270 269 266 263 265
277 275 276 275 276 278 278 279 278 276 275 273 272 269 272 274 279 284 285 280 280 284 283 282 284 288 286 285 284 281 277 278 277 273 266 258 257 257 258 262 265 265 265 264
275 272 273 276 276 276 276 278 277 282 280 277 271 267 269 274 279 282 279 279 280 283 283 284 286 287 287 288 289 286 280 273 266 267 274 277 266 252 251 254 255 257 261 261
278 276 279 279 279 281 282 281 287 283 281 279 276 275 270 272 273 274 275 275 276 278 280 281 281 282 284 285 284 284 283 278 267 262 263 263 264 261 252 250 252 252 253 254
280 279 273 276 281 280 284 286 283 282 280 281 282 279 277 272 269 269 270 272 272 273 275 277 279 279 277 278 279 276 274 271 265 258 257 254 251 253 256 262 264 254 251 251
277 278 281 280 279 283 283 281 280 281 281 282 284 287 285 279 274 271 271 270 270 270 269 270 271 273 272 269 269 266 261 259 259 253 256 253 250 252 252 254 255 253 247 246
279 285 283 281 282 284 285 284 283 276 277 279 288 285 280 280 282 281 276 275 276 275 272 267 268 270 270 265 263 262 256 258 251 246 247 249 248 248 247 247 247 249 247 251
277 269 272 276 277 277 274 278 265 256 263 272 277 275 275 280 277 270 274 277 276 274 268 267 273 277 274 270 266 265 264 259 253 252 247 244 242 244 245 244 248 248 246 250
274 272 272 275 279 276 273 270 266 268 270 271 268 272 276 277 269 265 259 258 262 262 264 268 269 274 272 271 271 269 266 264 258 249 246 246 244 245 244 244 248 246 247 247
275 274 272 269 267 270 272 269 263 261 270 274 276 275 277 276 275 272 268 267 267 268 268 269 270 270 266 270 268 267 266 265 259 247 244 243 244 241 242 247 247 248 253 252
272 272 272 271 269 268 269 269 272 271 272 274 276 278 279 278 274 271 272 275 274 271 269 266 265 268 273 273 268 265 263 264 263 261 258 250 252 250 248 248 253 258 264 266
273 271 272 271 271 270 268 272 270 271 273 276 277 277 277 276 274 274 275 275 275 274 273 272 272 273 273 270 264 260 260 266 261 261 264 262 260 261 264 260 257 264 266 269
272 271 270 272 272 270 273 272 272 274 274 274 275 277 278 278 278 279 280 280 281 280 280 279 278 275 272 270 268 264 263 265 262 261 262 262 262 261 259 260 262 261 261 263
272 272 274 275 274 274 272 277 278 276 276 278 279 279 280 280 280 280 282 282 282 282 282 282 282 280 278 276 272 267 263 261 262 262 262 262 262 261 258 256 256 258 255 261
275 274 274 276 276 277 277 278 278 279 278 279 279 279 280 280 280 280 281 283 283 283 282 281 280 279 279 278 277 275 273 269 266 262 262 257 259 258 258 259 256 260 261 262
277 278 279 279 279 279 282 283 282 280 282 281 281 281 282 283 284 285 283 283 282 282 282 282 282 282 281 280 278 277 275 274 272 269 266 263 259 256 257 260 260 258 255 257
280 281 280 279 279 282 284 284 284 282 280 282 283 285 285 285 285 286 285 285 285 284 284 284 284 283 283 281 279 276 275 273 271 269 268 266 265 262 261 262 260 260 259 256
281 279 281 281 283 284 283 278 278 280 281 282 282 283 284 284 286 285 286 287 287 287 286 286 286 285 285 284 283 281 278 275 271 269 267 266 265 265 264 263 263 260 258 257
281 285 283 282 284 282 279 280 282 283 285 286 286 286 285 285 286 287 288 289 289 290 291 291 291 290 288 287 285 284 282 279 277 274 270 266 264 263 263 263 262 261 258 257
288 286 285 281 285 283 283 283 282 282 284 285 285 285 286 288 289 290 291 292 293 294 293 294 293 292 291 289 288 287 285 283 280 277 274 271 267 264 260 260 261 261 259 258
289 287 285 285 286 288 286 287 287 286 286 286 287 288 290 292 292 293 294 295 295 295 295 295 295 294 294 293 291 289 287 285 283 279 276 272 269 266 262 258 255 257 257 256
Height
5805 5802 5804 5805 5799 5795 5794 5792 5788 5796 5797 5786 5793 5784 5787 5794 5794 5796 5795 5793 5791 5788 5788 5782 5782 5781 5779 5779 5779 5779 5781 5781 5781 5780 5780 5779 5780 5779 5780 5780 5781 5781 5782 5782
5798 5791 5797 5791 5790 5789 5787 5782 5783 5780 5782 5777 5776 5772 5777 5780 5788 5785 5784 5783 5778 5777 5779 5776 5773 5770 5769 5768 5769 5770 5770 5772 5772 5772 5772 5771 5770 5769 5769 5771 5772 5772 5771 5770
5785 5783 5783 5781 5779 5777 5775 5772 5772 5767 5770 5770 5764 5760 5765 5774 5776 5777 5771 5769 5769 5771 5771 5770 5767 5763 5762 5761 5760 5759 5760 5759 5761 5761 5760 5760 5761 5761 5759 5760 5759 5758 5759 5759
5771 5775 5772 5770 5768 5765 5763 5765 5763 5759 5757 5754 5756 5746 5755 5758 5762 5763 5760 5756 5753 5754 5755 5757 5756 5756 5755 5753 5750 5749 5748 5748 5746 5747 5748 5750 5750 5750 5750 5748 5745 5745 5746 5748
5762 5760 5762 5760 5761 5757 5756 5752 5751 5751 5748 5746 5743 5743 5744 5745 5743 5743 5743 5743 5744 5743 5740 5739 5739 5738 5741 5743 5742 5739 5736 5736 5735 5735 5735 5736 5737 5739 5740 5739 5736 5735 5734 5734
5745 5745 5744 5745 5744 5743 5742 5740 5737 5734 5735 5734 5738 5736 5737 5734 5732 5729 5727 5730 5728 5724 5723 5725 5722 5719 5722 5724 5727 5728 5728 5724 5724 5721 5719 5719 5722 5722 5723 5726 5725 5723 5721 5721
5730 5731 5730 5729 5727 5729 5727 5724 5719 5716 5717 5722 5724 5725 5729 5726 5726 5719 5717 5713 5709 5703 5705 5705 5704 5705 5704 5704 5705 5709 5711 5711 5709 5707 5705 5703 5704 5705 5704 5706 5708 5708 5708 5707
5712 5716 5717 5717 5714 5712 5710 5710 5707 5697 5701 5703 5703 5703 5723 5719 5709 5706 5697 5694 5693 5689 5687 5688 5687 5684 5684 5687 5689 5689 5690 5692 5694 5694 5693 5691 5686 5683 5685 5689 5689 5690 5691 5691
5693 5696 5697 5697 5696 5698 5694 5690 5694 5681 5677 5675 5685 5688 5699 5708 5696 5688 5681 5679 5679 5675 5674 5674 5674 5673 5670 5666 5670 5671 5672 5673 5674 5675 5676 5675 5674 5671 5670 5668 5669 5668 5669 5671
5676 5671 5685 5679 5681 5681 5675 5677 5670 5669 5658 5653 5651 5664 5671 5688 5674 5669 5665 5661 5661 5661 5660 5659 5658 5658 5658 5652 5650 5652 5654 5655 5657 5658 5658 5656 5654 5655 5655 5653 5654 5653 5653 5654
5661 5654 5664 5659 5663 5664 5658 5654 5652 5649 5644 5634 5630 5630 5658 5648 5650 5649 5647 5643 5642 5641 5641 5640 5640 5639 5639 5637 5634 5633 5634 5637 5637 5639 5639 5639 5638 5637 5638 5638 5640 5638 5638 5638
5649 5637 5631 5642 5647 5640 5638 5634 5634 5628 5627 5622 5614 5612 5625 5625 5626 5627 5628 5626 5621 5619 5620 5619 5619 5618 5619 5620 5617 5616 5616 5617 5617 5616 5616 5617 5618 5618 5619 5619 5620 5622 5624 5626
5630 5623 5618 5618 5629 5626 5621 5623 5622 5616 5612 5610 5605 5602 5609 5605 5605 5608 5607 5606 5603 5602 5599 5598 5597 5596 5597 5597 5598 5598 5596 5598 5598 5598 5597 5597 5596 5596 5598 5598 5601 5603 5605 5608
5612 5608 5606 5603 5606 5604 5601 5604 5604 5601 5589 5588 5586 5586 5589 5586 5590 5588 5585 5585 5584 5583 5580 5577 5575 5575 5573 5572 5572 5574 5575 5574 5574 5573 5575 5575 5575 5575 5575 5576 5579 5579 5582 5585
5593 5587 5590 5588 5589 5582 5580 5582 5585 5579 5577 5565 5567 5563 5568 5563 5564 5564 5563 5563 5562 5561 5559 5557 5554 5552 5551 5549 5547 5546 5547 5548 5550 5550 5549 5551 5552 5550 5552 5553 5555 5556 5558 5560
5576 5567 5566 5563 5570 5562 5554 5561 5564 5564 5559 5549 5546 5542 5544 5541 5539 5537 5537 5536 5536 5537 5536 5535 5533 5531 5529 5527 5525 5522 5522 5521 5521 5523 5523 5523 5524 5527 5526 5527 5531 5531 5532 5533
5556 5550 5547 5537 5547 5537 5529 5548 5543 5539 5540 5533 5526 5524 5519 5516 5516 5515 5514 5511 5512 5511 5512 5512 5510 5507 5505 5502 5500 5499 5496 5496 5496 5495 5496 5497 5500 5501 5500 5500 5502 5504 5507 5510
5532 5531 5524 5514 5519 5503 5518 5522 5520 5519 5517 5512 5504 5498 5494 5490 5490 5492 5489 5486 5486 5483 5482 5481 5480 5479 5478 5476 5472 5471 5468 5466 5467 5467 5467 5467 5468 5471 5472 5473 5473 5476 5480 5483
5513 5509 5498 5493 5493 5488 5495 5498 5497 5493 5492 5488 5482 5474 5471 5466 5467 5475 5464 5462 5462 5459 5457 5454 5451 5450 5449 5445 5440 5438 5436 5434 5433 5434 5436 5436 5435 5438 5441 5444 5445 5447 5451 5456
5491 5488 5482 5476 5471 5466 5473 5475 5474 5470 5465 5466 5458 5454 5451 5444 5444 5453 5443 5441 5436 5431 5429 5426 5424 5422 5421 5418 5411 5408 5405 5403 5399 5400 5402 5405 5404 5406 5408 5412 5416 5416 5418 5426
5470 5466 5461 5458 5451 5449 5456 5454 5451 5447 5446 5438 5435 5434 5431 5424 5423 5424 5422 5417 5413 5409 5405 5399 5396 5395 5393 5388 5381 5378 5375 5375 5369 5367 5367 5368 5369 5371 5373 5377 5384 5387 5393 5400
5452 5450 5447 5443 5439 5437 5441 5435 5432 5427 5424 5420 5417 5414 5408 5405 5402 5399 5396 5394 5390 5386 5382 5376 5366 5365 5363 5356 5349 5347 5347 5342 5337 5336 5335 5334 5333 5336 5338 5341 5349 5353 5357 5367
5436 5434 5429 5430 5425 5426 5423 5416 5414 5409 5403 5407 5401 5400 5392 5386 5385 5379 5375 5372 5366 5358 5352 5346 5340 5337 5335 5328 5316 5311 5312 5305 5303 5303 5303 5302 5301 5302 5304 5305 5313 5318 5327 5333
5420 5423 5415 5410 5417 5409 5405 5403 5398 5394 5390 5389 5384 5379 5375 5368 5364 5359 5355 5349 5341 5336 5327 5318 5312 5307 5304 5300 5290 5280 5275 5269 5265 5265 5267 5268 5269 5272 5273 5275 5280 5285 5293 5302
5412 5408 5403 5396 5397 5390 5391 5386 5384 5382 5377 5372 5366 5361 5355 5350 5346 5338 5336 5329 5321 5314 5306 5297 5288 5278 5274 5267 5261 5253 5244 5236 5232 5230 5232 5232 5233 5235 5239 5243 5247 5250 5261 5267
5400 5392 5385 5382 5384 5373 5374 5373 5367 5363 5358 5353 5349 5345 5339 5333 5328 5323 5318 5309 5301 5293 5284 5275 5266 5254 5248 5241 5233 5224 5216 5207 5203 5201 5200 5198 5198 5199 5201 5206 5215 5218 5225 5234